GW4768 Weather Reports


Display with metric or nautical units.
time (UTC)temp
F
wind
direction
speed
MPH
gust
MPH
rain 1hr
in
rain 24hr
in
rain mn
in
humidity
%
barometer
mb
20260905154513 53 42 1.0 2.0 0.00 0.40 0.22 93 1020.0
20260905153010 52 238 2.0 3.0 0.00 0.40 0.22 95 1020.3
20260905151508 51 5 0.0 2.0 0.00 0.40 0.22 95 1020.3
20260905150028 50 5 1.0 2.0 0.00 0.40 0.22 95 1020.1
20260905144527 50 53 0.0 2.0 0.00 0.40 0.22 95 1020.1
20260905143031 50 28 0.0 2.0 0.00 0.40 0.22 95 1019.9
20260905141521 50 114 1.0 2.0 0.00 0.40 0.22 95 1019.9
20260905140020 50 13 0.0 3.0 0.00 0.40 0.22 95 1019.7
20260905134513 50 40 0.0 3.0 0.00 0.40 0.22 95 1019.8
20260905133017 50 319 0.0 3.0 0.00 0.40 0.22 95 1019.5
20260905131545 50 360 1.0 2.0 0.00 0.41 0.22 95 1018.9
20260905130033 50 81 0.0 3.0 0.00 0.42 0.22 95 1019.1
20260905124539 50 71 0.0 1.0 0.00 0.48 0.22 95 1019.2
20260905123029 50 271 0.0 2.0 0.00 0.52 0.22 95 1018.8
20260905121531 50 153 0.0 2.0 0.00 0.54 0.22 95 1018.9
20260905120024 50 123 1.0 4.0 0.01 0.56 0.22 94 1018.9
20260905114535 50 234 0.0 2.0 0.01 0.58 0.22 94 1018.7
20260905113016 50 234 0.0 4.0 0.02 0.58 0.22 94 1018.6
20260905111538 50 246 1.0 8.0 0.03 0.58 0.22 94 1018.6
20260905110030 50 229 2.0 6.0 0.04 0.57 0.21 94 1018.6
20260905104529 50 244 4.0 6.0 0.08 0.57 0.21 94 1018.4
20260905103023 50 244 4.0 5.0 0.10 0.56 0.20 94 1018.8
20260905101506 50 241 2.0 4.0 0.09 0.55 0.19 94 1018.7
20260905100010 51 90 2.0 6.0 0.08 0.52 0.17 94 1018.1
20260905094503 51 248 0.0 2.0 0.05 0.49 0.13 94 1018.8
20260905093003 51 143 0.0 2.0 0.02 0.46 0.10 94 1018.5
20260905091517 51 321 1.0 6.0 0.03 0.46 0.10 94 1018.1
20260905090014 51 166 0.0 4.0 0.04 0.45 0.09 94 1018.4
20260905084534 51 232 0.0 3.0 0.05 0.44 0.08 93 1018.2
20260905083018 51 280 3.0 7.0 0.06 0.44 0.08 93 1018.5
20260905081507 51 47 1.0 3.0 0.06 0.43 0.07 93 1017.8
20260905080012 51 200 0.0 2.0 0.04 0.41 0.05 93 1018.4
20260905074504 51 119 2.0 3.0 0.02 0.39 0.03 92 1017.9
20260905073009 51 156 1.0 5.0 0.02 0.38 0.02 92 1018.5
20260905071524 51 173 1.0 2.0 0.01 0.37 0.01 93 1018.3
20260905070017 51 313 0.0 2.0 0.01 0.37 0.01 93 1018.1
20260905064512 51 85 0.0 7.0 0.01 0.37 0.01 93 1017.9
20260905063016 51 242 2.0 3.0 0.00 0.36 0.00 92 1018.1
20260905061507 51 234 3.0 4.0 0.00 0.36 0.00 92 1018.4
20260905060018 51 242 3.0 4.0 0.00 0.36 0.00 92 1018.1
20260905054503 51 230 0.0 2.0 0.00 0.36 0.36 92 1018.3
20260905053027 51 234 1.0 3.0 0.00 0.36 0.36 91 1018.4
20260905051534 51 124 3.0 4.0 0.00 0.36 0.36 92 1018.2
20260905050020 51 113 3.0 4.0 0.00 0.36 0.36 92 1018.3
20260905044519 51 118 3.0 4.0 0.00 0.36 0.36 91 1018.7
20260905043016 51 157 2.0 2.0 0.00 0.36 0.36 91 1018.9
20260905041516 51 58 0.0 2.0 0.00 0.36 0.36 90 1018.8
20260905040017 52 44 0.0 2.0 0.00 0.36 0.36 90 1018.8
20260905034516 52 319 1.0 3.0 0.01 0.36 0.36 90 1018.9
20260905033028 52 278 1.0 6.0 0.01 0.36 0.36 89 1018.6
20260905031535 53 317 0.0 2.0 0.01 0.36 0.36 90 1018.9
20260905030030 53 252 1.0 2.0 0.03 0.36 0.36 89 1019.1
20260905024523 53 230 4.0 5.0 0.04 0.35 0.35 88 1019.0
20260905023029 53 71 3.0 7.0 0.07 0.35 0.35 86 1018.7
20260905021516 53 82 5.0 8.0 0.08 0.35 0.35 87 1018.5
20260905020020 53 60 6.0 9.0 0.11 0.33 0.33 86 1018.6
20260905014531 54 78 6.0 10.0 0.13 0.31 0.31 86 1018.4
20260905013030 54 81 7.0 10.0 0.10 0.28 0.28 84 1017.7
20260905011532 56 35 3.0 5.0 0.09 0.27 0.27 79 1017.5
20260905010029 59 5 1.0 4.0 0.04 0.22 0.22 70 1017.3
20260905004523 59 313 4.0 12.0 0.00 0.18 0.18 67 1016.6
20260905003023 61 313 8.0 14.0 0.00 0.18 0.18 63 1016.1
20260905001516 61 321 7.0 11.0 0.00 0.18 0.18 64 1016.0
20260905000024 61 244 2.0 7.0 0.00 0.18 0.18 64 1015.8
20260904234544 62 324 5.0 9.0 0.00 0.18 0.18 61 1015.3
20260904233048 63 311 4.0 10.0 0.00 0.18 0.18 57 1015.4
20260904231530 63 314 4.0 8.0 0.00 0.18 0.18 58 1015.4
20260904230032 64 262 3.0 7.0 0.00 0.18 0.18 57 1015.2
20260904224539 63 349 5.0 8.0 0.00 0.18 0.18 59 1015.2
20260904223031 63 47 5.0 7.0 0.00 0.18 0.18 60 1015.2
20260904221522 62 77 4.0 7.0 0.00 0.18 0.18 60 1015.5
20260904220029 62 17 2.0 4.0 0.00 0.18 0.18 60 1015.5
20260904214542 61 25 3.0 5.0 0.00 0.18 0.18 61 1015.4
20260904213037 61 360 3.0 10.0 0.00 0.18 0.18 62 1015.1
20260904211532 62 348 5.0 13.0 0.00 0.18 0.18 62 1014.9
20260904210038 61 352 5.0 13.0 0.00 0.18 0.18 60 1014.7
20260904204532 61 12 7.0 12.0 0.00 0.18 0.18 61 1014.7
20260904203032 60 26 4.0 12.0 0.00 0.18 0.18 67 1014.9
20260904201529 60 319 7.0 12.0 0.00 0.18 0.18 69 1014.9
20260904200029 60 342 5.0 9.0 0.00 0.18 0.18 68 1015.4
20260904194532 59 346 5.0 11.0 0.00 0.18 0.18 70 1015.5
20260904193041 59 9 6.0 12.0 0.00 0.18 0.18 70 1015.3
20260904191533 58 27 6.0 10.0 0.00 0.18 0.18 74 1015.5
20260904190027 58 350 7.0 11.0 0.00 0.18 0.18 72 1015.6
20260904184518 57 349 6.0 12.0 0.00 0.18 0.18 74 1015.7
20260904183030 56 19 5.0 9.0 0.00 0.18 0.18 74 1015.8
20260904181530 56 341 4.0 8.0 0.00 0.18 0.18 74 1015.9
20260904180029 56 288 3.0 7.0 0.00 0.18 0.18 76 1015.8
20260904174529 56 92 2.0 7.0 0.00 0.18 0.18 74 1015.9
20260904173030 55 333 3.0 6.0 0.00 0.18 0.18 79 1015.7
20260904171520 54 352 4.0 7.0 0.00 0.18 0.18 78 1015.7
20260904170030 54 46 3.0 7.0 0.00 0.18 0.18 81 1015.7
20260904164515 53 330 1.0 4.0 0.00 0.18 0.18 79 1015.5
20260904163034 53 352 2.0 4.0 0.00 0.18 0.18 80 1015.4
20260904161530 52 332 0.0 4.0 0.00 0.18 0.18 80 1015.4
20260904160039 51 336 0.0 2.0 0.00 0.18 0.18 83 1015.2